This demonstration page uses our WeatherBlox Daily Observations layout. Learn more.

Left ArrowRight Arrow

47.50024, -111.30081

Hourly Observations for November 26, 2022

Temp ( °F °C ) Dew Point ( °F °C ) Humidity (%) Winds ( mph kmh ) Pressure ( in mb ) Visibility ( mi km ) Precip ( " mm )
12:53 am 00:53 Partly Cloudy 44 6.7 27 -2.8 51 51 SW 17 28 29.90 1012 10 16 0.00 0.00
1:53 am 01:53 Mostly Cloudy 43 6.1 29 -1.7 57 57 SW 15 24 29.93 1014 10 16 0.00 0.00
2:53 am 02:53 Mostly Cloudy 42 5.6 29 -1.7 59 59 WSW 16 26 29.93 1014 10 16 0.00 0.00
3:53 am 03:53 Cloudy 40 4.4 30 -1.1 67 67 N 8 13 29.98 1015 10 16 0.00 0.00
4:53 am 04:53 Cloudy 38 3.3 31 -0.6 76 76 NE 8 13 30.02 1017 10 16 0.00 0.00
5:38 am 05:38 Cloudy with Light Rain 36 2.2 34 1.1 92 92 ENE 8 13 30.08 1019 10 16 0.01 0.13
5:53 am 05:53 Cloudy with Light Rain 35 1.7 34 1.1 96 96 E 6 9 30.05 1018 10 16 0.01 0.25
6:04 am 06:04 Cloudy with Light Rain 35 1.7 34 1.1 96 96 ESE 7 11 30.09 1019 10 16 0.01 0.13
6:53 am 06:53 Cloudy with Light Rain 35 1.7 34 1.1 96 96 E 6 9 30.08 1019 10 16 0.01 0.13
7:03 am 07:03 Cloudy with Light Rain 35 1.7 34 1.1 96 96 E 5 7 30.11 1020 10 16 0.01 0.25
7:53 am 07:53 Cloudy 34 1.1 34 1.1 100 100 ESE 6 9 30.09 1019 10 16 0.01 0.25
8:38 am 08:38 Cloudy 35 1.7 34 1.1 96 96 NNE 3 6 30.15 1021 0 0 0.00 0.00
8:46 am 08:46 Cloudy with Mist and Fog 34 1.1 34 1.1 100 100 N 3 6 30.15 1021 0 0 0.00 0.00
8:57 am 08:57 Cloudy with Fog 34 1.1 34 1.1 100 100 N 3 6 30.15 1021 0 0 0.00 0.00
9:18 am 09:18 Partly Cloudy with Fog 34 1.1 34 1.1 100 100 NE 5 7 30.15 1021 1 1 0.00 0.00
9:31 am 09:31 Cloudy with Mist and Fog 34 1.1 34 1.1 100 100 ENE 3 6 30.15 1021 1 2 0.00 0.00
9:53 am 09:53 Cloudy with Mist and Fog 36 2.2 35 1.7 96 96 NE 5 7 30.14 1021 2 2 0.00 0.00
10:53 am 10:53 Cloudy 36 2.2 35 1.7 96 96 Calm 30.14 1021 3 4 0.00 0.00
11:53 am 11:53 Cloudy 36 2.2 36 2.2 100 100 WNW 5 7 30.12 1020 3 5 0.00 0.00
12:32 pm 12:32 Partly Cloudy 41 5 37 2.8 86 86 WNW 5 7 30.07 1018 10 16 0.00 0.00
12:53 pm 12:53 Mostly Sunny 41 5 35 1.7 79 79 W 8 13 30.09 1019 10 16 0.00 0.00
1:53 pm 13:53 Partly Cloudy 44 6.7 34 1.1 67 67 SW 10 17 30.05 1018 10 16 0.00 0.00
2:53 pm 14:53 Mostly Sunny 43 6.1 25 -3.9 49 49 WSW 21 33 30.04 1017 10 16 0.00 0.00
3:53 pm 15:53 Sunny 40 4.4 25 -3.9 55 55 SW 12 19 30.05 1018 10 16 0.00 0.00
4:53 pm 16:53 Clear 35 1.7 24 -4.4 64 64 SW 13 20 30.07 1018 10 16 0.00 0.00
5:53 pm 17:53 Clear 33 0.6 23 -5 66 66 SW 14 22 30.06 1018 10 16 0.00 0.00
6:53 pm 18:53 Clear 34 1.1 22 -5.6 61 61 SW 20 31 30.04 1017 10 16 0.00 0.00
7:53 pm 19:53 Clear 34 1.1 22 -5.6 61 61 SW 22 35 30.02 1017 10 16 0.00 0.00
8:53 pm 20:53 Clear 34 1.1 20 -6.7 56 56 SW 28 44 29.99 1016 10 16 0.00 0.00
9:53 pm 21:53 Clear 34 1.1 20 -6.7 56 56 SW 25 41 29.95 1014 10 16 0.00 0.00
10:53 pm 22:53 Clear 35 1.7 20 -6.7 54 54 SW 28 44 29.91 1013 10 16 0.00 0.00
11:53 pm 23:53 Clear 35 1.7 19 -7.2 52 52 SW 32 52 29.89 1012 10 16 0.00 0.00

Powered by AerisWeather